QPF
0.08 0.06 0.05 0.06 0.08 0.09 0.09 0.08 0.10 0.10 0.09 0.07 0.05 0.05 0.05 0.08 0.10 0.11 0.12 0.14 0.14 0.12 0.10 0.08 0.06 0.04 0.03 0.02 0.01 0.01 0.00 0.00 0.00 0.00 0.00 0.00 0.00 0.00 0.00 0.00 0.00 0.00 0.00
0.07 0.05 0.05 0.05 0.06 0.06 0.07 0.07 0.08 0.10 0.09 0.05 0.04 0.03 0.04 0.08 0.13 0.15 0.14 0.12 0.13 0.12 0.11 0.10 0.08 0.06 0.05 0.04 0.02 0.01 0.01 0.01 0.01 0.00 0.00 0.00 0.00 0.00 0.00 0.00 0.00 0.00 0.00
0.03 0.03 0.03 0.04 0.04 0.05 0.06 0.06 0.06 0.06 0.05 0.04 0.03 0.03 0.04 0.04 0.07 0.11 0.15 0.14 0.13 0.14 0.14 0.12 0.11 0.09 0.06 0.05 0.03 0.02 0.01 0.01 0.01 0.00 0.00 0.00 0.00 0.00 0.00 0.00 0.00 0.00 0.00
0.01 0.01 0.01 0.02 0.03 0.03 0.04 0.05 0.06 0.05 0.04 0.03 0.02 0.03 0.03 0.03 0.05 0.08 0.11 0.12 0.11 0.12 0.12 0.14 0.13 0.10 0.08 0.06 0.04 0.04 0.03 0.02 0.01 0.01 0.00 0.00 0.00 0.00 0.00 0.00 0.00 0.00 0.00
0.02 0.01 0.01 0.01 0.01 0.02 0.02 0.03 0.04 0.04 0.03 0.03 0.03 0.03 0.03 0.02 0.03 0.06 0.08 0.10 0.11 0.11 0.10 0.11 0.14 0.12 0.10 0.09 0.08 0.07 0.06 0.04 0.02 0.01 0.01 0.00 0.00 0.00 0.00 0.00 0.00 0.00 0.00
0.02 0.02 0.01 0.02 0.02 0.01 0.02 0.02 0.02 0.03 0.03 0.04 0.04 0.03 0.02 0.02 0.02 0.04 0.06 0.06 0.08 0.09 0.09 0.08 0.09 0.10 0.13 0.12 0.11 0.10 0.09 0.09 0.06 0.03 0.02 0.01 0.01 0.00 0.00 0.00 0.00 0.00 0.00
0.02 0.02 0.02 0.02 0.03 0.02 0.01 0.01 0.02 0.02 0.03 0.04 0.04 0.03 0.02 0.02 0.02 0.02 0.05 0.06 0.08 0.08 0.09 0.09 0.09 0.08 0.08 0.12 0.13 0.14 0.13 0.12 0.10 0.07 0.04 0.02 0.01 0.01 0.00 0.00 0.00 0.00 0.00
0.02 0.02 0.01 0.01 0.02 0.01 0.01 0.01 0.01 0.01 0.01 0.02 0.03 0.02 0.01 0.01 0.01 0.02 0.06 0.07 0.09 0.11 0.11 0.10 0.10 0.11 0.11 0.11 0.09 0.14 0.17 0.16 0.14 0.11 0.08 0.06 0.03 0.02 0.01 0.00 0.00 0.00 0.00
0.01 0.01 0.01 0.00 0.01 0.00 0.01 0.01 0.01 0.00 0.00 0.01 0.01 0.02 0.01 0.00 0.00 0.01 0.03 0.08 0.12 0.14 0.12 0.12 0.12 0.13 0.14 0.13 0.11 0.15 0.19 0.18 0.18 0.17 0.13 0.10 0.07 0.04 0.02 0.01 0.01 0.00 0.00
0.00 0.00 0.00 0.00 0.00 0.00 0.00 0.00 0.00 0.00 0.00 0.00 0.00 0.01 0.01 0.01 0.00 0.00 0.01 0.02 0.05 0.10 0.10 0.09 0.11 0.12 0.13 0.15 0.16 0.16 0.16 0.16 0.17 0.20 0.19 0.15 0.13 0.10 0.06 0.04 0.03 0.01 0.00
0.00 0.00 0.00 0.00 0.00 0.00 0.00 0.00 0.00 0.00 0.00 0.00 0.00 0.00 0.00 0.01 0.01 0.00 0.00 0.00 0.01 0.03 0.05 0.06 0.08 0.09 0.11 0.14 0.15 0.17 0.19 0.17 0.17 0.19 0.22 0.22 0.18 0.16 0.13 0.09 0.06 0.04 0.01
0.00 0.00 0.00 0.00 0.00 0.00 0.00 0.00 0.00 0.00 0.00 0.00 0.00 0.00 0.00 0.00 0.00 0.00 0.00 0.00 0.00 0.01 0.02 0.03 0.04 0.06 0.06 0.09 0.13 0.16 0.19 0.18 0.15 0.17 0.20 0.22 0.22 0.20 0.17 0.14 0.12 0.08 0.05
0.00 0.00 0.00 0.00 0.00 0.00 0.00 0.00 0.00 0.00 0.00 0.00 0.00 0.00 0.00 0.00 0.00 0.00 0.00 0.00 0.00 0.00 0.01 0.01 0.01 0.03 0.05 0.06 0.08 0.11 0.11 0.13 0.13 0.14 0.15 0.16 0.19 0.19 0.17 0.17 0.17 0.15 0.11
0.00 0.00 0.00 0.00 0.00 0.00 0.00 0.00 0.00 0.00 0.00 0.00 0.00 0.00 0.00 0.00 0.00 0.00 0.00 0.00 0.00 0.00 0.00 0.00 0.01 0.02 0.04 0.05 0.05 0.07 0.07 0.07 0.07 0.09 0.11 0.13 0.14 0.14 0.14 0.14 0.14 0.15 0.14
0.00 0.00 0.00 0.00 0.00 0.00 0.00 0.00 0.00 0.00 0.00 0.00 0.00 0.00 0.00 0.00 0.00 0.00 0.00 0.00 0.01 0.00 0.00 0.00 0.00 0.01 0.02 0.04 0.07 0.07 0.05 0.05 0.05 0.06 0.07 0.09 0.10 0.09 0.09 0.09 0.10 0.09 0.09
0.00 0.00 0.00 0.00 0.00 0.00 0.00 0.00 0.00 0.00 0.00 0.00 0.00 0.00 0.00 0.00 0.00 0.00 0.00 0.00 0.01 0.01 0.00 0.00 0.00 0.00 0.01 0.03 0.05 0.07 0.07 0.06 0.04 0.04 0.05 0.06 0.07 0.08 0.09 0.08 0.08 0.08 0.08
0.00 0.00 0.00 0.00 0.00 0.00 0.00 0.00 0.00 0.00 0.00 0.00 0.00 0.00 0.00 0.00 0.00 0.00 0.01 0.00 0.00 0.01 0.00 0.00 0.00 0.00 0.00 0.01 0.03 0.03 0.04 0.05 0.04 0.03 0.03 0.05 0.05 0.05 0.07 0.08 0.08 0.08 0.09
0.00 0.00 0.00 0.00 0.00 0.00 0.00 0.00 0.00 0.00 0.00 0.00 0.00 0.00 0.00 0.00 0.00 0.00 0.00 0.01 0.01 0.01 0.01 0.00 0.00 0.00 0.00 0.00 0.00 0.01 0.01 0.02 0.02 0.03 0.03 0.03 0.04 0.05 0.05 0.05 0.06 0.06 0.08
0.00 0.00 0.00 0.00 0.00 0.00 0.00 0.00 0.00 0.00 0.00 0.00 0.00 0.00 0.00 0.00 0.00 0.00 0.00 0.00 0.01 0.01 0.01 0.01 0.00 0.00 0.00 0.00 0.00 0.00 0.01 0.01 0.01 0.02 0.02 0.03 0.03 0.04 0.05 0.04 0.05 0.05 0.06
0.00 0.00 0.00 0.00 0.00 0.00 0.00 0.00 0.00 0.00 0.00 0.00 0.00 0.00 0.00 0.00 0.00 0.00 0.00 0.00 0.01 0.01 0.01 0.01 0.00 0.00 0.00 0.00 0.00 0.00 0.01 0.01 0.01 0.01 0.03 0.03 0.03 0.04 0.04 0.05 0.05 0.05 0.05
0.00 0.00 0.00 0.00 0.00 0.00 0.00 0.00 0.00 0.00 0.00 0.00 0.00 0.00 0.00 0.00 0.00 0.00 0.00 0.00 0.01 0.01 0.01 0.01 0.00 0.00 0.00 0.00 0.00 0.00 0.01 0.01 0.01 0.02 0.02 0.03 0.03 0.04 0.04 0.04 0.05 0.06 0.05
0.00 0.00 0.00 0.00 0.00 0.00 0.00 0.00 0.00 0.00 0.00 0.00 0.00 0.00 0.00 0.00 0.00 0.00 0.00 0.00 0.00 0.00 0.01 0.01 0.00 0.00 0.00 0.00 0.00 0.00 0.01 0.01 0.01 0.02 0.02 0.02 0.04 0.04 0.04 0.04 0.05 0.05 0.05
0.00 0.00 0.00 0.00 0.00 0.00 0.00 0.00 0.00 0.00 0.00 0.00 0.00 0.00 0.00 0.00 0.00 0.00 0.00 0.00 0.00 0.00 0.00 0.00 0.00 0.00 0.00 0.00 0.00 0.00 0.01 0.01 0.02 0.02 0.04 0.03 0.04 0.05 0.05 0.05 0.06 0.07 0.06
0.00 0.00 0.00 0.00 0.00 0.00 0.00 0.00 0.00 0.00 0.00 0.00 0.00 0.00 0.00 0.00 0.00 0.01 0.01 0.01 0.01 0.01 0.01 0.01 0.00 0.00 0.00 0.00 0.00 0.01 0.01 0.01 0.02 0.03 0.05 0.06 0.06 0.06 0.07 0.07 0.08 0.08 0.07
0.00 0.00 0.00 0.00 0.00 0.00 0.00 0.00 0.00 0.00 0.00 0.00 0.00 0.00 0.00 0.00 0.00 0.01 0.01 0.01 0.01 0.01 0.01 0.01 0.00 0.00 0.00 0.00 0.00 0.02 0.02 0.02 0.03 0.04 0.05 0.06 0.07 0.08 0.09 0.09 0.10 0.12 0.12
0.00 0.00 0.00 0.00 0.00 0.00 0.00 0.00 0.00 0.00 0.00 0.00 0.00 0.01 0.01 0.00 0.00 0.00 0.01 0.01 0.01 0.00 0.00 0.00 0.00 0.00 0.00 0.00 0.01 0.04 0.05 0.04 0.04 0.06 0.07 0.07 0.08 0.10 0.10 0.11 0.11 0.11 0.12
MSLP
1016.77 1016.90 1017.00 1017.10 1017.20 1017.30 1017.41 1017.49 1017.54 1017.54 1017.49 1017.40 1017.31 1017.23 1017.19 1017.21 1017.28 1017.40 1017.54 1017.69 1017.82 1017.94 1018.06 1018.20 1018.37 1018.61 1018.90 1019.25 1019.63 1020.00 1020.35 1020.64 1020.88 1021.06 1021.21 1021.35 1021.51 1021.69 1021.91 1022.15 1022.39 1022.62 1022.83
1016.73 1016.85 1016.95 1017.05 1017.15 1017.26 1017.38 1017.48 1017.54 1017.56 1017.52 1017.45 1017.36 1017.27 1017.20 1017.17 1017.18 1017.23 1017.30 1017.37 1017.45 1017.54 1017.65 1017.79 1017.99 1018.26 1018.59 1018.97 1019.37 1019.76 1020.12 1020.42 1020.67 1020.88 1021.05 1021.23 1021.42 1021.63 1021.87 1022.12 1022.37 1022.60 1022.80
1016.61 1016.73 1016.84 1016.95 1017.08 1017.21 1017.35 1017.47 1017.56 1017.60 1017.60 1017.54 1017.46 1017.37 1017.27 1017.20 1017.14 1017.10 1017.08 1017.06 1017.07 1017.10 1017.18 1017.31 1017.52 1017.81 1018.16 1018.56 1018.97 1019.38 1019.74 1020.06 1020.33 1020.55 1020.76 1020.97 1021.19 1021.44 1021.71 1021.98 1022.25 1022.50 1022.71
1016.44 1016.57 1016.70 1016.84 1017.00 1017.17 1017.34 1017.49 1017.61 1017.68 1017.70 1017.67 1017.60 1017.51 1017.40 1017.28 1017.16 1017.04 1016.91 1016.80 1016.71 1016.67 1016.69 1016.78 1016.98 1017.26 1017.62 1018.02 1018.45 1018.85 1019.23 1019.55 1019.83 1020.08 1020.32 1020.56 1020.82 1021.11 1021.42 1021.73 1022.03 1022.31 1022.56
1016.26 1016.41 1016.57 1016.75 1016.95 1017.15 1017.36 1017.53 1017.68 1017.77 1017.82 1017.81 1017.77 1017.69 1017.57 1017.43 1017.25 1017.05 1016.83 1016.62 1016.43 1016.29 1016.23 1016.27 1016.42 1016.67 1017.00 1017.39 1017.81 1018.21 1018.58 1018.91 1019.20 1019.47 1019.73 1020.01 1020.32 1020.65 1021.01 1021.36 1021.71 1022.04 1022.33
1016.14 1016.30 1016.48 1016.70 1016.93 1017.17 1017.39 1017.59 1017.75 1017.86 1017.93 1017.95 1017.93 1017.88 1017.77 1017.62 1017.41 1017.15 1016.86 1016.55 1016.26 1016.02 1015.87 1015.82 1015.90 1016.09 1016.38 1016.73 1017.11 1017.49 1017.85 1018.17 1018.47 1018.76 1019.05 1019.36 1019.71 1020.09 1020.49 1020.90 1021.30 1021.67 1022.02
1016.11 1016.27 1016.47 1016.70 1016.96 1017.22 1017.45 1017.65 1017.81 1017.93 1018.01 1018.06 1018.07 1018.05 1017.97 1017.83 1017.62 1017.33 1016.99 1016.61 1016.23 1015.90 1015.64 1015.50 1015.49 1015.60 1015.81 1016.10 1016.43 1016.77 1017.09 1017.40 1017.70 1017.99 1018.31 1018.65 1019.03 1019.45 1019.90 1020.35 1020.79 1021.21 1021.61
1016.19 1016.33 1016.53 1016.78 1017.04 1017.29 1017.51 1017.70 1017.84 1017.95 1018.04 1018.11 1018.16 1018.18 1018.15 1018.05 1017.86 1017.57 1017.20 1016.78 1016.34 1015.92 1015.58 1015.34 1015.22 1015.24 1015.36 1015.56 1015.81 1016.09 1016.37 1016.65 1016.93 1017.23 1017.56 1017.92 1018.33 1018.78 1019.25 1019.73 1020.21 1020.66 1021.10
1016.35 1016.47 1016.66 1016.89 1017.14 1017.37 1017.57 1017.72 1017.84 1017.93 1018.02 1018.11 1018.19 1018.25 1018.27 1018.22 1018.08 1017.82 1017.46 1017.02 1016.55 1016.07 1015.66 1015.33 1015.12 1015.03 1015.05 1015.15 1015.31 1015.51 1015.73 1015.97 1016.23 1016.51 1016.84 1017.21 1017.63 1018.08 1018.57 1019.06 1019.55 1020.02 1020.47
1016.56 1016.64 1016.81 1017.02 1017.23 1017.43 1017.58 1017.70 1017.78 1017.85 1017.93 1018.02 1018.13 1018.24 1018.32 1018.32 1018.23 1018.02 1017.70 1017.27 1016.79 1016.29 1015.83 1015.44 1015.14 1014.96 1014.88 1014.88 1014.94 1015.06 1015.20 1015.38 1015.60 1015.86 1016.17 1016.54 1016.95 1017.40 1017.88 1018.36 1018.84 1019.31 1019.75
1016.74 1016.80 1016.93 1017.10 1017.28 1017.43 1017.55 1017.62 1017.66 1017.70 1017.77 1017.87 1018.00 1018.14 1018.26 1018.32 1018.28 1018.13 1017.85 1017.46 1017.00 1016.50 1016.03 1015.60 1015.24 1014.99 1014.81 1014.72 1014.69 1014.71 1014.78 1014.90 1015.06 1015.29 1015.57 1015.92 1016.31 1016.75 1017.20 1017.65 1018.10 1018.54 1018.96
1016.85 1016.89 1016.99 1017.13 1017.27 1017.37 1017.44 1017.47 1017.48 1017.50 1017.55 1017.65 1017.79 1017.94 1018.09 1018.19 1018.20 1018.09 1017.86 1017.52 1017.11 1016.64 1016.18 1015.74 1015.36 1015.06 1014.82 1014.64 1014.53 1014.47 1014.46 1014.51 1014.62 1014.80 1015.05 1015.37 1015.73 1016.13 1016.55 1016.96 1017.36 1017.75 1018.14
1016.87 1016.89 1016.96 1017.07 1017.17 1017.24 1017.27 1017.27 1017.26 1017.26 1017.29 1017.38 1017.51 1017.67 1017.82 1017.93 1017.96 1017.89 1017.71 1017.43 1017.07 1016.66 1016.23 1015.82 1015.45 1015.12 1014.84 1014.61 1014.43 1014.30 1014.22 1014.21 1014.26 1014.40 1014.61 1014.89 1015.22 1015.57 1015.94 1016.30 1016.65 1016.99 1017.33
1016.78 1016.79 1016.85 1016.93 1017.00 1017.04 1017.05 1017.03 1017.00 1016.98 1017.00 1017.07 1017.18 1017.32 1017.46 1017.56 1017.60 1017.55 1017.41 1017.18 1016.88 1016.53 1016.17 1015.81 1015.46 1015.14 1014.85 1014.59 1014.36 1014.18 1014.04 1013.97 1013.98 1014.07 1014.24 1014.48 1014.77 1015.08 1015.39 1015.70 1015.99 1016.28 1016.57
1016.61 1016.62 1016.67 1016.72 1016.77 1016.79 1016.79 1016.76 1016.72 1016.69 1016.70 1016.75 1016.83 1016.94 1017.04 1017.12 1017.14 1017.09 1016.97 1016.78 1016.54 1016.26 1015.97 1015.68 1015.38 1015.10 1014.82 1014.55 1014.30 1014.08 1013.90 1013.79 1013.76 1013.81 1013.94 1014.13 1014.37 1014.63 1014.89 1015.14 1015.38 1015.61 1015.85
1016.39 1016.40 1016.43 1016.48 1016.51 1016.52 1016.50 1016.46 1016.42 1016.40 1016.39 1016.42 1016.47 1016.53 1016.59 1016.62 1016.61 1016.55 1016.43 1016.28 1016.09 1015.88 1015.66 1015.44 1015.21 1014.97 1014.72 1014.46 1014.21 1013.97 1013.77 1013.63 1013.57 1013.58 1013.68 1013.83 1014.02 1014.22 1014.42 1014.61 1014.78 1014.96 1015.15
1016.13 1016.14 1016.17 1016.20 1016.22 1016.21 1016.19 1016.16 1016.12 1016.09 1016.08 1016.08 1016.09 1016.11 1016.12 1016.10 1016.05 1015.96 1015.85 1015.71 1015.57 1015.41 1015.26 1015.10 1014.93 1014.74 1014.53 1014.30 1014.06 1013.82 1013.62 1013.46 1013.38 1013.37 1013.42 1013.53 1013.66 1013.81 1013.94 1014.06 1014.16 1014.27 1014.42
1015.84 1015.86 1015.88 1015.90 1015.90 1015.89 1015.87 1015.83 1015.79 1015.76 1015.74 1015.72 1015.70 1015.68 1015.64 1015.57 1015.48 1015.37 1015.24 1015.12 1015.00 1014.88 1014.78 1014.67 1014.56 1014.41 1014.24 1014.04 1013.82 1013.60 1013.41 1013.25 1013.16 1013.12 1013.14 1013.20 1013.28 1013.35 1013.41 1013.44 1013.47 1013.50 1013.59
1015.52 1015.54 1015.56 1015.56 1015.56 1015.53 1015.50 1015.47 1015.43 1015.40 1015.36 1015.33 1015.28 1015.22 1015.14 1015.04 1014.91 1014.77 1014.64 1014.51 1014.40 1014.31 1014.24 1014.17 1014.09 1013.98 1013.84 1013.67 1013.49 1013.29 1013.11 1012.97 1012.87 1012.82 1012.81 1012.83 1012.84 1012.83 1012.80 1012.73 1012.67 1012.62 1012.63
1015.17 1015.19 1015.20 1015.19 1015.17 1015.14 1015.10 1015.05 1015.01 1014.97 1014.93 1014.88 1014.82 1014.73 1014.63 1014.49 1014.34 1014.18 1014.03 1013.90 1013.79 1013.71 1013.64 1013.59 1013.53 1013.44 1013.33 1013.19 1013.04 1012.88 1012.73 1012.60 1012.52 1012.46 1012.43 1012.39 1012.33 1012.24 1012.11 1011.94 1011.77 1011.62 1011.55
1014.78 1014.80 1014.80 1014.78 1014.74 1014.69 1014.63 1014.58 1014.52 1014.48 1014.43 1014.37 1014.30 1014.20 1014.08 1013.93 1013.77 1013.60 1013.43 1013.29 1013.17 1013.08 1013.01 1012.95 1012.88 1012.81 1012.72 1012.61 1012.48 1012.36 1012.25 1012.16 1012.09 1012.04 1011.98 1011.90 1011.78 1011.60 1011.37 1011.09 1010.81 1010.56 1010.40
1014.36 1014.37 1014.36 1014.32 1014.26 1014.19 1014.12 1014.04 1013.98 1013.92 1013.86 1013.80 1013.73 1013.63 1013.51 1013.36 1013.19 1013.02 1012.84 1012.68 1012.54 1012.43 1012.34 1012.26 1012.18 1012.11 1012.03 1011.94 1011.85 1011.77 1011.71 1011.66 1011.62 1011.58 1011.51 1011.40 1011.22 1010.97 1010.64 1010.26 1009.87 1009.52 1009.27
1013.92 1013.93 1013.90 1013.84 1013.76 1013.66 1013.56 1013.47 1013.39 1013.32 1013.26 1013.20 1013.14 1013.05 1012.93 1012.79 1012.63 1012.45 1012.26 1012.08 1011.92 1011.77 1011.65 1011.54 1011.45 1011.37 1011.29 1011.23 1011.17 1011.14 1011.13 1011.12 1011.13 1011.10 1011.04 1010.91 1010.69 1010.37 1009.97 1009.51 1009.03 1008.59 1008.26
1013.51 1013.49 1013.44 1013.35 1013.24 1013.12 1013.00 1012.88 1012.79 1012.72 1012.66 1012.61 1012.55 1012.47 1012.37 1012.25 1012.09 1011.90 1011.71 1011.50 1011.31 1011.13 1010.97 1010.83 1010.71 1010.61 1010.54 1010.50 1010.48 1010.49 1010.53 1010.58 1010.62 1010.63 1010.58 1010.45 1010.21 1009.86 1009.41 1008.89 1008.35 1007.85 1007.46
1013.13 1013.08 1012.99 1012.87 1012.73 1012.58 1012.44 1012.31 1012.21 1012.14 1012.09 1012.05 1012.01 1011.95 1011.86 1011.74 1011.59 1011.39 1011.18 1010.95 1010.72 1010.50 1010.30 1010.12 1009.98 1009.87 1009.80 1009.77 1009.79 1009.84 1009.93 1010.02 1010.11 1010.16 1010.14 1010.02 1009.78 1009.43 1008.96 1008.42 1007.86 1007.33 1006.90
1012.77 1012.68 1012.56 1012.40 1012.23 1012.06 1011.90 1011.77 1011.67 1011.61 1011.57 1011.55 1011.53 1011.49 1011.41 1011.29 1011.13 1010.92 1010.68 1010.42 1010.15 1009.89 1009.64 1009.43 1009.26 1009.14 1009.07 1009.06 1009.10 1009.19 1009.32 1009.45 1009.58 1009.67 1009.68 1009.59 1009.38 1009.04 1008.60 1008.07 1007.52 1006.99 1006.56
Thickness
5735 5734 5733 5732 5732 5731 5731 5730 5730 5729 5728 5727 5728 5729 5728 5728 5728 5729 5730 5731 5730 5730 5729 5728 5727 5727 5727 5727 5726 5725 5725 5724 5724 5724 5724 5723 5722 5721 5721 5720 5720 5719 5718
5731 5730 5729 5729 5728 5728 5728 5728 5726 5725 5725 5724 5725 5725 5725 5725 5725 5726 5728 5728 5728 5727 5727 5726 5726 5725 5725 5725 5725 5724 5724 5723 5723 5723 5723 5722 5722 5721 5720 5720 5719 5719 5718
5728 5727 5726 5725 5725 5725 5725 5724 5723 5722 5722 5721 5721 5721 5722 5722 5722 5723 5724 5724 5724 5724 5723 5723 5723 5723 5723 5724 5724 5724 5723 5723 5722 5722 5722 5722 5721 5720 5720 5719 5718 5718 5717
5726 5724 5722 5721 5721 5721 5720 5719 5718 5717 5716 5716 5716 5717 5718 5719 5720 5720 5720 5721 5721 5721 5721 5721 5721 5722 5722 5722 5722 5722 5722 5722 5722 5721 5720 5720 5720 5720 5719 5719 5718 5717 5717
5723 5721 5719 5717 5717 5716 5715 5714 5712 5711 5710 5710 5711 5713 5714 5715 5716 5717 5717 5717 5718 5719 5719 5719 5720 5720 5720 5720 5721 5721 5721 5720 5720 5720 5720 5719 5719 5719 5719 5718 5718 5717 5716
5719 5718 5715 5713 5712 5710 5708 5707 5706 5706 5705 5705 5707 5708 5709 5711 5712 5713 5714 5715 5716 5716 5716 5717 5718 5718 5719 5719 5719 5719 5719 5719 5718 5718 5719 5719 5718 5718 5717 5717 5717 5717 5716
5716 5713 5711 5709 5707 5704 5703 5702 5700 5699 5698 5699 5697 5697 5702 5706 5707 5709 5710 5711 5712 5713 5714 5715 5716 5716 5717 5717 5717 5718 5718 5717 5717 5717 5717 5717 5717 5717 5716 5716 5716 5716 5716
5712 5710 5707 5704 5702 5700 5697 5696 5694 5691 5691 5692 5689 5686 5685 5690 5697 5703 5704 5705 5707 5709 5710 5712 5713 5713 5714 5715 5716 5716 5715 5715 5715 5715 5715 5715 5715 5716 5715 5715 5715 5715 5715
5708 5706 5704 5701 5698 5695 5692 5690 5689 5686 5683 5684 5684 5680 5675 5674 5680 5689 5694 5698 5699 5702 5704 5707 5708 5710 5711 5712 5713 5713 5713 5713 5714 5714 5714 5714 5714 5714 5714 5714 5714 5714 5714
5705 5703 5700 5698 5694 5691 5688 5686 5685 5682 5679 5675 5676 5676 5675 5673 5670 5672 5681 5687 5691 5693 5696 5700 5702 5704 5706 5708 5709 5710 5710 5711 5711 5712 5713 5713 5713 5713 5713 5713 5713 5713 5713
5701 5699 5696 5693 5690 5687 5684 5682 5679 5677 5674 5671 5669 5668 5668 5667 5667 5664 5665 5672 5678 5684 5689 5692 5695 5698 5700 5702 5704 5705 5706 5707 5709 5710 5711 5711 5711 5711 5711 5712 5712 5712 5712
5695 5693 5691 5688 5685 5682 5680 5677 5675 5672 5670 5667 5665 5663 5661 5659 5658 5658 5657 5659 5664 5672 5680 5685 5687 5690 5692 5695 5697 5699 5701 5702 5705 5707 5708 5709 5709 5710 5710 5710 5711 5712 5712
5688 5687 5686 5683 5680 5678 5675 5673 5670 5667 5665 5662 5660 5658 5657 5655 5654 5653 5651 5651 5654 5661 5668 5674 5679 5681 5684 5686 5689 5692 5695 5697 5699 5702 5704 5705 5706 5707 5709 5709 5710 5711 5711
5685 5684 5681 5679 5676 5673 5671 5668 5665 5662 5660 5657 5655 5653 5651 5650 5649 5648 5646 5645 5644 5647 5653 5660 5667 5672 5675 5678 5681 5684 5687 5690 5693 5696 5699 5701 5703 5704 5706 5708 5709 5710 5710
5684 5681 5678 5675 5672 5669 5666 5663 5659 5657 5654 5652 5650 5648 5646 5645 5644 5643 5641 5640 5637 5636 5639 5647 5653 5661 5665 5669 5672 5675 5679 5682 5686 5689 5692 5695 5698 5700 5702 5705 5707 5708 5709
5682 5678 5675 5671 5668 5665 5662 5658 5654 5652 5649 5646 5644 5641 5639 5638 5637 5636 5634 5633 5632 5631 5631 5637 5642 5648 5654 5658 5662 5666 5670 5674 5678 5682 5686 5689 5693 5696 5698 5701 5704 5706 5707
5679 5675 5672 5668 5664 5660 5657 5653 5649 5646 5642 5639 5637 5634 5632 5630 5628 5627 5626 5625 5624 5624 5624 5628 5632 5639 5643 5647 5652 5656 5661 5666 5670 5675 5679 5683 5687 5690 5693 5696 5699 5702 5704
5677 5673 5669 5664 5660 5656 5652 5648 5643 5640 5636 5632 5629 5626 5624 5622 5620 5618 5617 5616 5616 5616 5616 5618 5622 5627 5632 5637 5642 5646 5652 5657 5661 5667 5672 5676 5681 5684 5688 5692 5695 5698 5700
5674 5670 5665 5661 5656 5652 5648 5643 5639 5635 5630 5626 5623 5619 5616 5613 5611 5609 5608 5608 5608 5610 5609 5610 5613 5616 5621 5626 5630 5635 5641 5646 5652 5658 5664 5669 5674 5678 5683 5687 5690 5693 5697
5671 5666 5662 5657 5653 5649 5644 5639 5634 5629 5624 5620 5616 5612 5609 5606 5603 5601 5601 5600 5600 5600 5600 5601 5603 5606 5609 5615 5618 5622 5628 5635 5641 5649 5655 5661 5667 5672 5677 5681 5685 5689 5692
5668 5663 5658 5654 5649 5645 5640 5635 5630 5624 5618 5613 5609 5605 5602 5600 5599 5596 5595 5593 5593 5592 5592 5592 5594 5596 5599 5602 5606 5611 5616 5622 5631 5638 5645 5652 5659 5664 5669 5674 5679 5684 5687
5664 5659 5654 5650 5645 5641 5637 5632 5625 5619 5612 5607 5602 5599 5596 5594 5593 5592 5591 5590 5588 5586 5585 5585 5586 5587 5591 5594 5598 5602 5605 5610 5617 5628 5633 5641 5649 5655 5662 5668 5673 5678 5682
5660 5655 5650 5645 5640 5636 5632 5627 5621 5614 5607 5601 5596 5592 5591 5590 5587 5585 5584 5584 5583 5583 5583 5581 5581 5583 5585 5588 5590 5593 5596 5600 5607 5616 5621 5630 5638 5646 5654 5661 5666 5672 5676
5655 5650 5646 5641 5635 5632 5628 5622 5616 5609 5602 5596 5592 5588 5584 5582 5581 5579 5577 5577 5576 5576 5577 5577 5578 5580 5581 5583 5584 5587 5589 5594 5601 5606 5612 5618 5628 5636 5645 5652 5659 5664 5669
5651 5646 5642 5636 5631 5627 5623 5617 5611 5603 5596 5592 5588 5584 5580 5577 5577 5575 5572 5570 5569 5569 5571 5572 5573 5574 5576 5577 5578 5578 5580 5584 5590 5597 5604 5610 5619 5625 5634 5642 5650 5656 5661
5648 5643 5638 5633 5628 5623 5619 5614 5607 5598 5591 5588 5583 5580 5577 5574 5572 5570 5566 5563 5562 5562 5562 5563 5564 5566 5568 5570 5572 5573 5575 5577 5581 5588 5597 5602 5610 5615 5623 5632 5640 5646 5652